Time,TemperatureF,DewpointF,PressureIn,WindDirection,WindDirectionDegrees,WindSpeedMPH,WindSpeedGustMPH,Humidity,HourlyPrecipIn,Conditions,Clouds,dailyrainin,SoftwareType,DateUTC
2013-04-29 00:05:00,55.9,55.6,29.64,SSW,202,3.2,-999.0,99,-99.99,,,0.00,Acu-Link.com,2013-04-29 04:05:00,
2013-04-29 00:20:00,55.9,55.6,29.64,SW,225,3.7,-999.0,99,-99.99,,,0.00,Acu-Link.com,2013-04-29 04:20:00,
2013-04-29 00:36:00,55.8,55.5,29.64,WSW,247,2.2,-999.0,99,-99.99,,,0.00,Acu-Link.com,2013-04-29 04:36:00,
2013-04-29 00:51:00,55.8,55.5,29.63,SW,225,2.7,-999.0,99,-99.99,,,0.00,Acu-Link.com,2013-04-29 04:51:00,
2013-04-29 01:06:00,55.6,55.3,29.65,SSW,202,2.2,-999.0,99,-99.99,,,0.00,Acu-Link.com,2013-04-29 05:06:00,
2013-04-29 01:21:00,55.6,55.3,29.64,West,270,2.7,-999.0,99,-99.99,,,0.00,Acu-Link.com,2013-04-29 05:21:00,
2013-04-29 01:36:00,55.4,55.1,29.65,West,270,3.2,-999.0,99,-99.99,,,0.00,Acu-Link.com,2013-04-29 05:36:00,
2013-04-29 01:51:00,55.4,55.1,29.65,WNW,292,3.7,-999.0,99,-99.99,,,0.00,Acu-Link.com,2013-04-29 05:51:00,
2013-04-29 02:06:00,55.4,55.1,29.65,WSW,247,5.8,-999.0,99,-99.99,,,0.00,Acu-Link.com,2013-04-29 06:06:00,
2013-04-29 02:21:00,55.4,55.1,29.65,WSW,247,6.3,-999.0,99,-99.99,,,0.00,Acu-Link.com,2013-04-29 06:21:00,
2013-04-29 02:36:00,55.4,55.1,29.65,SW,225,5.3,-999.0,99,-99.99,,,0.00,Acu-Link.com,2013-04-29 06:36:00,
2013-04-29 02:51:00,55.4,55.1,29.64,SW,225,5.8,-999.0,99,-99.99,,,0.00,Acu-Link.com,2013-04-29 06:51:00,
2013-04-29 03:07:00,55.4,55.1,29.64,West,270,4.7,-999.0,99,-99.99,,,0.00,Acu-Link.com,2013-04-29 07:07:00,
2013-04-29 03:22:00,55.4,55.1,29.65,SSW,202,5.8,-999.0,99,-99.99,,,0.00,Acu-Link.com,2013-04-29 07:22:00,
2013-04-29 03:37:00,55.2,54.9,29.65,SSW,202,5.8,-999.0,99,-99.99,,,0.00,Acu-Link.com,2013-04-29 07:37:00,
2013-04-29 03:52:00,55.2,54.9,29.65,SW,225,5.3,-999.0,99,-99.99,,,0.00,Acu-Link.com,2013-04-29 07:52:00,
2013-04-29 04:08:00,55.2,54.9,29.64,West,270,6.3,-999.0,99,-99.99,,,0.00,Acu-Link.com,2013-04-29 08:08:00,
2013-04-29 04:23:00,55.2,54.9,29.64,SW,225,4.2,-999.0,99,-99.99,,,0.00,Acu-Link.com,2013-04-29 08:23:00,
2013-04-29 04:39:00,55.2,54.9,29.65,WSW,247,3.7,-999.0,99,-99.99,,,0.00,Acu-Link.com,2013-04-29 08:39:00,
2013-04-29 04:54:00,55.2,54.9,29.66,WNW,292,2.7,-999.0,99,-99.99,,,0.00,Acu-Link.com,2013-04-29 08:54:00,
2013-04-29 05:09:00,55.2,54.9,29.66,SW,225,3.7,-999.0,99,-99.99,,,0.00,Acu-Link.com,2013-04-29 09:09:00,
2013-04-29 05:24:00,55.2,54.9,29.66,SW,225,2.2,-999.0,99,-99.99,,,0.00,Acu-Link.com,2013-04-29 09:24:00,
2013-04-29 05:39:00,55.2,54.9,29.67,West,270,3.7,-999.0,99,-99.99,,,0.00,Acu-Link.com,2013-04-29 09:39:00,
2013-04-29 05:54:00,55.2,54.9,29.68,WSW,247,6.8,-999.0,99,-99.99,,,0.00,Acu-Link.com,2013-04-29 09:54:00,
2013-04-29 06:09:00,55.2,54.9,29.69,WSW,247,3.7,-999.0,99,-99.99,,,0.00,Acu-Link.com,2013-04-29 10:09:00,
2013-04-29 06:24:00,55.2,54.9,29.69,WSW,247,5.3,-999.0,99,-99.99,,,0.00,Acu-Link.com,2013-04-29 10:24:00,
2013-04-29 06:39:00,55.2,54.9,29.69,West,270,6.3,-999.0,99,-99.99,,,0.00,Acu-Link.com,2013-04-29 10:39:00,
2013-04-29 06:54:00,55.2,54.9,29.70,West,270,4.2,-999.0,99,-99.99,,,0.00,Acu-Link.com,2013-04-29 10:54:00,
2013-04-29 07:10:00,55.0,54.7,29.70,WNW,292,3.7,-999.0,99,-99.99,,,0.00,Acu-Link.com,2013-04-29 11:10:00,
2013-04-29 07:25:00,55.0,54.7,29.71,West,270,5.3,-999.0,99,-99.99,,,0.00,Acu-Link.com,2013-04-29 11:25:00,
2013-04-29 07:40:00,55.0,54.7,29.71,SSW,202,2.7,-999.0,99,-99.99,,,0.00,Acu-Link.com,2013-04-29 11:40:00,
2013-04-29 07:55:00,54.9,54.6,29.71,WNW,292,5.8,-999.0,99,-99.99,,,0.00,Acu-Link.com,2013-04-29 11:55:00,
2013-04-29 08:10:00,54.9,54.6,29.72,WNW,292,1.1,-999.0,99,-99.99,,,0.00,Acu-Link.com,2013-04-29 12:10:00,
2013-04-29 08:26:00,54.9,54.6,29.72,SSW,202,3.7,-999.0,99,-99.99,,,0.00,Acu-Link.com,2013-04-29 12:26:00,
2013-04-29 08:41:00,55.0,54.7,29.72,SW,225,3.7,-999.0,99,-99.99,,,0.00,Acu-Link.com,2013-04-29 12:41:00,
2013-04-29 08:56:00,55.4,55.1,29.72,SW,225,2.2,-999.0,99,-99.99,,,0.00,Acu-Link.com,2013-04-29 12:56:00,
2013-04-29 09:11:00,55.4,54.8,29.72,SSW,202,4.7,-999.0,98,-99.99,,,0.00,Acu-Link.com,2013-04-29 13:11:00,
2013-04-29 09:26:00,55.6,55.0,29.72,WSW,247,5.8,-999.0,98,-99.99,,,0.00,Acu-Link.com,2013-04-29 13:26:00,
2013-04-29 09:41:00,56.3,55.2,29.72,SSW,202,2.7,-999.0,96,-99.99,,,0.00,Acu-Link.com,2013-04-29 13:41:00,
2013-04-29 09:57:00,56.5,55.1,29.73,SSW,202,4.7,-999.0,95,-99.99,,,0.00,Acu-Link.com,2013-04-29 13:57:00,
2013-04-29 10:12:00,56.8,55.1,29.72,West,270,4.2,-999.0,94,-99.99,,,0.00,Acu-Link.com,2013-04-29 14:12:00,
2013-04-29 10:27:00,56.8,54.8,29.73,SSW,202,4.7,-999.0,93,-99.99,,,0.00,Acu-Link.com,2013-04-29 14:27:00,
2013-04-29 10:42:00,57.4,55.4,29.73,SSW,202,5.3,-999.0,93,-99.99,,,0.00,Acu-Link.com,2013-04-29 14:42:00,
2013-04-29 10:57:00,57.7,55.4,29.73,SW,225,3.7,-999.0,92,-99.99,,,0.00,Acu-Link.com,2013-04-29 14:57:00,
2013-04-29 11:13:00,59.0,56.1,29.73,South,180,3.7,-999.0,90,-99.99,,,0.00,Acu-Link.com,2013-04-29 15:13:00,
2013-04-29 11:28:00,60.4,56.8,29.73,WSW,247,2.2,-999.0,88,-99.99,,,0.00,Acu-Link.com,2013-04-29 15:28:00,
2013-04-29 11:43:00,60.1,56.8,29.73,SW,225,3.7,-999.0,89,-99.99,,,0.00,Acu-Link.com,2013-04-29 15:43:00,
2013-04-29 11:58:00,61.0,57.7,29.73,SW,225,3.7,-999.0,89,-99.99,,,0.00,Acu-Link.com,2013-04-29 15:58:00,
2013-04-29 12:14:00,61.9,57.7,29.73,SSW,202,3.2,-999.0,86,-99.99,,,0.00,Acu-Link.com,2013-04-29 16:14:00,
2013-04-29 12:29:00,62.4,58.2,29.73,SE,135,4.2,-999.0,86,-99.99,,,0.00,Acu-Link.com,2013-04-29 16:29:00,
2013-04-29 12:44:00,63.9,58.6,29.72,NNE,22,1.1,-999.0,83,-99.99,,,0.00,Acu-Link.com,2013-04-29 16:44:00,
2013-04-29 12:59:00,63.9,58.6,29.72,South,180,2.7,-999.0,83,-99.99,,,0.00,Acu-Link.com,2013-04-29 16:59:00,
2013-04-29 13:15:00,63.9,59.0,29.72,South,180,6.3,-999.0,84,-99.99,,,0.00,Acu-Link.com,2013-04-29 17:15:00,
2013-04-29 13:30:00,63.5,59.2,29.72,SSW,202,5.3,-999.0,86,-99.99,,,0.00,Acu-Link.com,2013-04-29 17:30:00,
2013-04-29 13:45:00,63.9,58.3,29.71,SE,135,4.2,-999.0,82,-99.99,,,0.00,Acu-Link.com,2013-04-29 17:45:00,
2013-04-29 14:00:00,64.0,58.4,29.71,SSW,202,6.8,-999.0,82,-99.99,,,0.00,Acu-Link.com,2013-04-29 18:00:00,
2013-04-29 14:15:00,64.6,58.3,29.70,SW,225,3.2,-999.0,80,-99.99,,,0.00,Acu-Link.com,2013-04-29 18:15:00,
2013-04-29 14:31:00,65.5,58.5,29.70,SSW,202,7.3,-999.0,78,-99.99,,,0.00,Acu-Link.com,2013-04-29 18:31:00,
2013-04-29 14:46:00,65.7,57.9,29.69,South,180,6.3,-999.0,76,-99.99,,,0.00,Acu-Link.com,2013-04-29 18:46:00,
2013-04-29 15:01:00,65.1,57.3,29.69,South,180,8.9,-999.0,76,-99.99,,,0.00,Acu-Link.com,2013-04-29 19:01:00,
2013-04-29 15:16:00,66.2,57.3,29.69,South,180,7.8,-999.0,73,-99.99,,,0.00,Acu-Link.com,2013-04-29 19:16:00,
2013-04-29 15:31:00,67.1,58.1,29.69,SSW,202,4.7,-999.0,73,-99.99,,,0.00,Acu-Link.com,2013-04-29 19:31:00,
2013-04-29 15:46:00,66.9,57.6,29.69,SE,135,5.8,-999.0,72,-99.99,,,0.00,Acu-Link.com,2013-04-29 19:46:00,
2013-04-29 16:01:00,66.7,56.6,29.68,South,180,7.3,-999.0,70,-99.99,,,0.00,Acu-Link.com,2013-04-29 20:01:00,
2013-04-29 16:16:00,66.4,57.1,29.67,SSE,157,11.9,-999.0,72,-99.99,,,0.00,Acu-Link.com,2013-04-29 20:16:00,
2013-04-29 16:32:00,66.9,57.2,29.67,SSE,157,11.4,-999.0,71,-99.99,,,0.00,Acu-Link.com,2013-04-29 20:32:00,
2013-04-29 16:47:00,66.6,56.5,29.67,SSW,202,5.3,-999.0,70,-99.99,,,0.00,Acu-Link.com,2013-04-29 20:47:00,
2013-04-29 17:02:00,67.6,58.2,29.66,SSE,157,5.8,-999.0,72,-99.99,,,0.00,Acu-Link.com,2013-04-29 21:02:00,
2013-04-29 17:17:00,68.5,57.5,29.66,SSE,157,12.5,-999.0,68,-99.99,,,0.00,Acu-Link.com,2013-04-29 21:17:00,
2013-04-29 17:32:00,67.8,57.7,29.66,SSE,157,5.3,-999.0,70,-99.99,,,0.00,Acu-Link.com,2013-04-29 21:32:00,
2013-04-29 17:47:00,68.4,57.4,29.65,South,180,10.9,-999.0,68,-99.99,,,0.00,Acu-Link.com,2013-04-29 21:47:00,
2013-04-29 18:02:00,67.5,56.6,29.65,SSE,157,8.9,-999.0,68,-99.99,,,0.00,Acu-Link.com,2013-04-29 22:02:00,
2013-04-29 18:17:00,68.2,57.2,29.64,SSE,157,9.9,-999.0,68,-99.99,,,0.00,Acu-Link.com,2013-04-29 22:17:00,
2013-04-29 18:32:00,67.8,57.3,29.65,SSE,157,7.8,-999.0,69,-99.99,,,0.00,Acu-Link.com,2013-04-29 22:32:00,
2013-04-29 18:47:00,67.6,57.5,29.64,South,180,9.4,-999.0,70,-99.99,,,0.00,Acu-Link.com,2013-04-29 22:47:00,
2013-04-29 19:02:00,67.5,57.8,29.65,SSE,157,7.8,-999.0,71,-99.99,,,0.00,Acu-Link.com,2013-04-29 23:02:00,
2013-04-29 19:17:00,67.6,57.9,29.64,SSE,157,4.7,-999.0,71,-99.99,,,0.00,Acu-Link.com,2013-04-29 23:17:00,
2013-04-29 19:32:00,66.2,57.3,29.64,South,180,6.8,-999.0,73,-99.99,,,0.00,Acu-Link.com,2013-04-29 23:32:00,
2013-04-29 19:47:00,65.8,57.3,29.65,SSE,157,9.4,-999.0,74,-99.99,,,0.00,Acu-Link.com,2013-04-29 23:47:00,
2013-04-29 20:02:00,64.9,57.5,29.64,SSE,157,4.7,-999.0,77,-99.99,,,0.00,Acu-Link.com,2013-04-30 00:02:00,
2013-04-29 20:17:00,63.9,57.3,29.64,SE,135,4.7,-999.0,79,-99.99,,,0.00,Acu-Link.com,2013-04-30 00:17:00,
2013-04-29 20:32:00,63.0,57.1,29.64,South,180,4.7,-999.0,81,-99.99,,,0.00,Acu-Link.com,2013-04-30 00:32:00,
2013-04-29 20:48:00,62.4,56.5,29.64,SE,135,6.8,-999.0,81,-99.99,,,0.00,Acu-Link.com,2013-04-30 00:48:00,
2013-04-29 21:03:00,61.9,56.3,29.65,South,180,4.2,-999.0,82,-99.99,,,0.00,Acu-Link.com,2013-04-30 01:03:00,
2013-04-29 21:18:00,61.3,56.1,29.66,SSE,157,4.7,-999.0,83,-99.99,,,0.00,Acu-Link.com,2013-04-30 01:18:00,
2013-04-29 21:33:00,60.8,55.9,29.65,SSE,157,6.3,-999.0,84,-99.99,,,0.00,Acu-Link.com,2013-04-30 01:33:00,
2013-04-29 21:48:00,60.6,55.7,29.65,SE,135,11.4,-999.0,84,-99.99,,,0.00,Acu-Link.com,2013-04-30 01:48:00,
2013-04-29 22:03:00,60.3,55.8,29.66,SSE,157,6.8,-999.0,85,-99.99,,,0.00,Acu-Link.com,2013-04-30 02:03:00,
2013-04-29 22:19:00,59.9,55.7,29.66,South,180,5.8,-999.0,86,-99.99,,,0.00,Acu-Link.com,2013-04-30 02:19:00,
2013-04-29 22:34:00,59.4,55.5,29.67,SSE,157,8.9,-999.0,87,-99.99,,,0.00,Acu-Link.com,2013-04-30 02:34:00,
2013-04-29 22:49:00,59.2,55.3,29.66,SSE,157,8.3,-999.0,87,-99.99,,,0.00,Acu-Link.com,2013-04-30 02:49:00,
2013-04-29 23:04:00,58.8,55.3,29.66,SSW,202,6.3,-999.0,88,-99.99,,,0.00,Acu-Link.com,2013-04-30 03:04:00,
2013-04-29 23:19:00,58.6,55.1,29.65,SSE,157,7.8,-999.0,88,-99.99,,,0.00,Acu-Link.com,2013-04-30 03:19:00,
2013-04-29 23:34:00,58.3,54.8,29.66,SSE,157,7.8,-999.0,88,-99.99,,,0.00,Acu-Link.com,2013-04-30 03:34:00,
2013-04-29 23:49:00,58.5,55.3,29.65,South,180,6.8,-999.0,89,-99.99,,,0.00,Acu-Link.com,2013-04-30 03:49:00,